STARLINK-3830, 52363

Orbit data source: Space-Track

STARLINK-3830, 52363 is a payload satellite owned by SpaceX/Seattle (US) in LEO that was launched on Fri, 29 Apr 2022 UTC via an FALCON 9 launch vehicle from the Air Force Eastern Test Range (AFETR). Payload-class satellites include a variety of spacecraft equipped with specific instruments for various scientific and technological missions. These include communications satellites like Starlink; space stations such as the ISS; scientific satellites like the Hubble; Earth observation satellites from companies like Planet Labs, Umbra, and HawkEye 360; GPS; miniature CubeSats for education and research; and military/defense satellites.

Loading next visibility...
Identifier
52363, 2022-045AJ
Orbit
LEO
Country
Flag of USUS
Related business
Manufacturer
SpaceX/Seattle
Mission
Operational Commercial Communications
Bus & Motor
STARLINK, Unknown motor
Mass
297 kg wet, ~275 kg dry
Launch date (UTC)
2022-04-29 (4 years ago)
Launch vehicle
FALCON 9
Launch site
Air Force Eastern Test Range (AFETR)
Object type
Payload
Rocket body
Debris
Shape & HBR
Box + 1 Pan, 10.1 m
Radar Cross Section
11.087 m², Large (>1 m²)

Expand to show TLE details & history
Last TLE update: 3 days ago

TLE from 3 days ago
0 STARLINK-3830
1 52363U 22045AJ  26170.94151500 -.00003009  00000-0 -17105-3 0  9994
2 52363  53.1610  99.9874 0001420  84.0158 276.0995 15.08837991231225
Epoch: 2026-06-19T22:35Z
TLE epoch observation values (Epoch: 2026-06-19T22:35:46.896Z)
Latitude
-0.00002°
Longitude
-147.12128°
Altitude
540.537 km
Speed
7.593 km/s
True Right ascension
06h 39m 56s
True Declination
0° 00' 00"
Sunlit
Object was in daylight at epoch
Visualization orbit readout
Latitude
Unknown
Longitude
Unknown
Altitude
Unknown
Speed
Unknown
Apparent Right ascension
Unknown
Apparent Declination
Unknown
Sunlit
N/A
Visualization observer readout
Local Sidereal Time
21:39:49
Azimuth
Unknown
Elevation
Unknown
Doppler factor
Unknown
Orbital elements
Apogee altitude
540.986 km
Perigee altitude
539.021 km
Semi-major axis
6,918.14 km
Eccentricity
0.00014
Inclination
53.161°
RAAN
99.9874°
Arg. of periapsis
84.0158°
True anomaly
276.08332°
Mean anomaly
276.0995°
Eccentric anomaly
276.09141°
Mean motion
3.77189 °/min
Orbital period
95.44 mins
BSTAR
-0.00017105
Loading maneuver chart data...
Computing Atmospheric mass density...
Loading historical data...
Loading historical data...
Loading historical data...
Loading historical data...
Loading historical data...
Loading historical data...
Loading historical data...

Documentation

Showing up to 5 results
|